Location: Gensac
(43.2177°N, 1.1313°E)
Time: 00:42:19
(UTC+00:00)

Cosmos 2142 Rocket - Pass Details

Date: 08 December 2025
Orbit: 951 x 1005 km, 83.0° (Epoch: 19 January)

Event Time Altitude Azimuth Distance (km) Brightness Sun altitude
Exits shadow 04:47:07 32° 344° (NNW) 1,610 5.4 -26.1°
Maximum altitude 04:50:10 76° 266° (W) 1,007 4.3 -25.5°
Drops below altitude 10° 04:56:19 10° 181° (S) 2,693 6.9 -24.4°
Sets 04:58:48 0° 180° (S) 3,629 7.6 -24.0°
